Date String (YYYY-MM-DD hh:mm:ss) UTC,Instrument flags,Ambient pressure (hPa),Sample flow (lpm),Bypass flow (lpm),Sample temperature (°C),Ambient temperature (°C),ASC tube jacket temperature (°C),LED temperature (°C),Box temperature (°C),Sample RH (%),Span deviation,Mass concentration (μg/m³),Mass concentration (μg/m³),Mass concentration (μg/m³)
DateTimeUTC,F1_M11,P_M11,Q1_M11,Q2_M11,T1_M11,T2_M11,T3_M11,T4_M11,T5_M11,U1_M11,ZSPAN_M11,X2_M11,X0_M11,X1_M11
2022-05-01 04:00:00,,0826.6,5.01,0.00,28.5,27.7,00.0,37.4,30.3,09.1,0000.0,0004.32,0013.83,0002.99
2022-05-01 04:01:00,,0826.5,5.00,0.00,28.5,27.6,00.0,37.4,30.3,09.1,0000.0,0004.36,0014.30,0003.00
2022-05-01 04:02:00,,0826.6,4.99,0.00,28.5,27.7,00.0,37.4,30.3,09.0,0000.0,0004.43,0014.26,0003.02
2022-05-01 04:03:00,,0826.6,5.00,0.00,28.5,27.7,00.0,37.4,30.3,09.0,0000.0,0004.44,0014.30,0003.06
2022-05-01 04:04:00,,0826.6,5.01,0.00,28.5,27.7,00.0,37.4,30.3,09.0,0000.0,0004.43,0014.86,0003.07
2022-05-01 04:05:00,,0826.6,4.99,0.00,28.5,27.7,00.0,37.4,30.2,09.0,0000.0,0004.46,0015.51,0003.08
2022-05-01 04:06:00,,0826.6,4.99,0.00,28.5,27.7,00.0,37.4,30.3,09.0,0000.0,0004.50,0015.14,0003.08
2022-05-01 04:07:00,,0826.6,5.01,0.00,28.5,27.7,00.0,37.4,30.3,09.0,0000.0,0004.52,0015.00,0003.09
2022-05-01 04:08:00,,0826.6,5.00,0.00,28.5,27.7,00.0,37.4,30.3,09.0,0000.0,0004.51,0015.59,0003.10
2022-05-01 04:09:00,,0826.6,4.99,0.00,28.5,27.7,00.0,37.4,30.3,09.0,0000.0,0004.49,0015.87,0003.12
2022-05-01 04:10:00,,0826.7,5.01,0.00,28.5,27.7,00.0,37.4,30.3,09.0,0000.0,0004.49,0016.89,0003.13
2022-05-01 04:11:00,,0826.6,4.99,0.00,28.5,27.7,00.0,37.4,30.3,09.0,0000.0,0004.50,0016.63,0003.14
2022-05-01 04:12:00,,0826.6,5.00,0.00,28.5,27.7,00.0,37.4,30.3,09.0,0000.0,0004.58,0016.97,0003.17
2022-05-01 04:13:00,,0826.7,5.01,0.00,28.5,27.7,00.0,37.4,30.3,09.0,0000.0,0004.57,0017.22,0003.18
2022-05-01 04:14:00,,0826.7,4.98,0.00,28.5,27.7,00.0,37.4,30.3,09.0,0000.0,0004.59,0018.09,0003.19
2022-05-01 04:15:00,,0826.7,5.02,0.00,28.5,27.7,00.0,37.4,30.3,09.0,0000.0,0004.67,0018.57,0003.20
2022-05-01 04:16:00,,0826.7,4.99,0.00,28.5,27.7,00.0,37.4,30.3,09.0,0000.0,0004.67,0018.07,0003.20
2022-05-01 04:17:00,,0826.7,4.99,0.00,28.5,27.7,00.0,37.4,30.3,09.0,0000.0,0004.69,0017.48,0003.22
2022-05-01 04:18:00,,0826.7,5.01,0.00,28.5,27.7,00.0,37.4,30.3,09.0,0000.0,0004.72,0017.62,0003.24
2022-05-01 04:19:00,,0826.7,4.99,0.00,28.5,27.7,00.0,37.4,30.3,09.0,0000.0,0004.76,0017.78,0003.25
2022-05-01 04:20:00,,0826.7,5.00,0.00,28.5,27.7,00.0,37.4,30.3,09.0,0000.0,0004.77,0017.48,0003.25
2022-05-01 04:21:00,,0826.7,4.99,0.00,28.5,27.7,00.0,37.4,30.3,09.0,0000.0,0004.86,0016.78,0003.27
2022-05-01 04:22:00,,0826.7,4.99,0.00,28.5,27.7,00.0,37.4,30.3,09.0,0000.0,0004.87,0017.23,0003.28
2022-05-01 04:23:00,,0826.8,5.02,0.00,28.5,27.7,00.0,37.4,30.3,09.0,0000.0,0004.80,0018.45,0003.28
2022-05-01 04:24:00,,0826.7,5.00,0.00,28.5,27.7,00.0,37.4,30.3,09.1,0000.0,0004.81,0019.65,0003.28
2022-05-01 04:25:00,,0826.8,4.99,0.00,28.5,27.7,00.0,37.4,30.3,09.0,0000.0,0004.83,0020.45,0003.27
2022-05-01 04:26:00,,0826.7,5.00,0.00,28.5,27.7,00.0,37.4,30.3,09.0,0000.0,0004.81,0021.73,0003.28
2022-05-01 04:27:00,,0826.8,5.01,0.00,28.5,27.7,00.0,37.4,30.3,09.0,0000.0,0004.82,0023.22,0003.28
2022-05-01 04:28:00,,0826.7,5.00,0.00,28.5,27.7,00.0,37.4,30.3,09.0,0000.0,0004.78,0024.21,0003.27
2022-05-01 04:29:00,,0826.7,4.99,0.00,28.5,27.7,00.0,37.4,30.3,09.0,0000.0,0004.79,0027.18,0003.26
2022-05-01 04:30:00,,0826.8,5.00,0.00,28.5,27.7,00.0,37.4,30.3,09.1,0000.0,0004.79,0027.22,0003.27
2022-05-01 04:31:00,,0826.8,5.02,0.00,28.5,27.7,00.0,37.4,30.3,09.0,0000.0,0004.81,0027.35,0003.27
2022-05-01 04:32:00,,0826.8,4.99,0.00,28.5,27.7,00.0,37.4,30.3,09.0,0000.0,0004.79,0027.87,0003.27
2022-05-01 04:33:00,,0826.8,5.02,0.00,28.5,27.7,00.0,37.4,30.3,09.0,0000.0,0004.77,0028.32,0003.26
2022-05-01 04:34:00,,0826.9,4.99,0.00,28.5,27.7,00.0,37.4,30.3,09.0,0000.0,0004.76,0027.15,0003.25
2022-05-01 04:35:00,,0826.9,5.00,0.00,28.5,27.7,00.0,37.4,30.3,09.0,0000.0,0004.80,0026.77,0003.25
2022-05-01 04:36:00,,0827.0,5.01,0.00,28.5,27.7,00.0,37.4,30.3,09.0,0000.0,0004.79,0027.10,0003.24
2022-05-01 04:37:00,,0827.1,4.98,0.00,28.5,27.7,00.0,37.4,30.3,09.0,0000.0,0004.75,0025.43,0003.24
2022-05-01 04:38:00,,0826.9,4.99,0.00,28.5,27.7,00.0,37.4,30.3,09.0,0000.0,0004.75,0024.73,0003.24
2022-05-01 04:39:00,,0826.9,5.01,0.00,28.5,27.7,00.0,37.4,30.3,09.0,0000.0,0004.77,0024.39,0003.25
2022-05-01 04:40:00,,0826.8,4.98,0.00,28.5,27.7,00.0,37.4,30.3,09.0,0000.0,0004.77,0022.35,0003.25
2022-05-01 04:41:00,,0826.8,5.01,0.00,28.5,27.7,00.0,37.4,30.3,09.0,0000.0,0004.71,0021.70,0003.23
2022-05-01 04:42:00,,0826.8,5.01,0.00,28.5,27.6,00.0,37.4,30.3,09.0,0000.0,0004.70,0021.78,0003.22
2022-05-01 04:43:00,,0826.8,4.99,0.00,28.5,27.7,00.0,37.4,30.3,09.0,0000.0,0004.64,0020.97,0003.22
2022-05-01 04:44:00,,0826.8,5.00,0.00,28.5,27.7,00.0,37.4,30.3,09.0,0000.0,0004.63,0020.22,0003.22
2022-05-01 04:45:00,,0826.7,5.00,0.00,28.5,27.6,00.0,37.4,30.3,09.0,0000.0,0004.65,0020.51,0003.22
2022-05-01 04:46:00,,0826.8,5.00,0.00,28.5,27.6,00.0,37.4,30.3,09.0,0000.0,0004.62,0019.16,0003.23
2022-05-01 04:47:00,,0826.8,5.00,0.00,28.5,27.6,00.0,37.4,30.3,09.0,0000.0,0004.58,0017.39,0003.24
2022-05-01 04:48:00,,0826.8,5.01,0.00,28.6,27.6,00.0,37.4,30.3,09.0,0000.0,0004.56,0016.63,0003.24
2022-05-01 04:49:00,,0826.8,4.99,0.00,28.6,27.7,00.0,37.4,30.3,09.0,0000.0,0004.50,0016.15,0003.23
2022-05-01 04:50:00,,0826.8,5.00,0.00,28.5,27.7,00.0,37.4,30.3,09.0,0000.0,0004.49,0015.79,0003.22
2022-05-01 04:51:00,,0826.8,5.01,0.00,28.6,27.7,00.0,37.5,30.3,09.0,0000.0,0004.47,0015.66,0003.21
2022-05-01 04:52:00,,0826.8,4.99,0.00,28.6,27.7,00.0,37.5,30.3,09.0,0000.0,0004.46,0015.20,0003.22
2022-05-01 04:53:00,,0826.8,5.01,0.00,28.6,27.7,00.0,37.5,30.4,09.0,0000.0,0004.48,0015.77,0003.22
2022-05-01 04:54:00,,0826.9,5.00,0.00,28.6,27.7,00.0,37.5,30.4,09.0,0000.0,0004.56,0016.68,0003.22
2022-05-01 04:55:00,,0827.0,5.00,0.00,28.6,27.7,00.0,37.5,30.4,09.0,0000.0,0004.56,0017.04,0003.22
2022-05-01 04:56:00,,0826.8,4.99,0.00,28.6,27.7,00.0,37.5,30.4,09.0,0000.0,0004.56,0017.08,0003.21
2022-05-01 04:57:00,,0826.8,5.02,0.00,28.6,27.7,00.0,37.5,30.4,09.0,0000.0,0004.54,0018.02,0003.19
2022-05-01 04:58:00,,0826.8,4.99,0.00,28.6,27.7,00.0,37.5,30.4,09.0,0000.0,0004.55,0017.79,0003.18
2022-05-01 04:59:00,,0826.8,4.99,0.00,28.6,27.6,00.0,37.5,30.4,09.0,0000.0,0004.59,0017.74,0003.17
